Time,TemperatureF,DewpointF,PressureIn,WindDirection,WindDirectionDegrees,WindSpeedMPH,WindSpeedGustMPH,Humidity,HourlyPrecipIn,Conditions,Clouds,dailyrainin,SoftwareType,DateUTC
2013-03-23 00:00:00,70.1,69.2,29.72,ESE,114,7.0,13.0,97,0.00,,---,0.00,VWS V14.01,2013-03-23 05:00:00,
2013-03-23 00:05:00,70.1,69.2,29.72,East,90,6.0,10.0,97,0.00,,---,0.00,VWS V14.01,2013-03-23 05:05:00,
2013-03-23 00:10:00,70.1,69.2,29.72,ESE,123,10.0,11.0,97,0.00,,---,0.00,VWS V14.01,2013-03-23 05:10:00,
2013-03-23 00:15:00,70.1,69.2,29.72,SSE,150,8.0,12.0,97,0.00,,---,0.00,VWS V14.01,2013-03-23 05:15:00,
2013-03-23 00:20:00,70.1,69.2,29.72,ESE,113,8.0,12.0,97,0.00,,---,0.00,VWS V14.01,2013-03-23 05:20:00,
2013-03-23 00:25:00,70.1,69.2,29.72,ESE,109,6.0,12.0,97,0.00,,---,0.00,VWS V14.01,2013-03-23 05:25:00,
2013-03-23 00:30:00,70.1,69.2,29.72,ENE,62,6.0,13.0,97,0.00,,---,0.00,VWS V14.01,2013-03-23 05:30:00,
2013-03-23 00:35:00,70.0,69.1,29.72,ESE,104,7.0,13.0,97,0.00,,---,0.00,VWS V14.01,2013-03-23 05:35:00,
2013-03-23 00:40:00,69.9,69.0,29.72,East,98,8.0,13.0,97,0.00,,---,0.00,VWS V14.01,2013-03-23 05:40:00,
2013-03-23 00:45:00,69.9,69.0,29.71,East,101,6.0,13.0,97,0.00,,---,0.00,VWS V14.01,2013-03-23 05:45:00,
2013-03-23 00:50:00,69.9,69.0,29.71,ENE,70,6.0,13.0,97,0.00,,---,0.00,VWS V14.01,2013-03-23 05:50:00,
2013-03-23 00:55:00,69.9,69.0,29.71,East,88,8.0,13.0,97,0.00,,---,0.00,VWS V14.01,2013-03-23 05:55:00,
2013-03-23 01:00:00,69.8,68.9,29.71,East,98,10.0,13.0,97,0.00,,---,0.00,VWS V14.01,2013-03-23 06:00:00,
2013-03-23 01:05:00,69.8,68.9,29.71,East,86,6.0,11.0,97,0.00,,---,0.00,VWS V14.01,2013-03-23 06:05:00,
2013-03-23 01:10:00,69.7,68.8,29.71,ESE,113,8.0,11.0,97,0.00,,---,0.00,VWS V14.01,2013-03-23 06:10:00,
2013-03-23 01:15:00,69.6,68.7,29.71,ESE,105,7.0,11.0,97,0.00,,---,0.00,VWS V14.01,2013-03-23 06:15:00,
2013-03-23 01:20:00,69.6,68.7,29.71,ESE,105,8.0,11.0,97,0.00,,---,0.00,VWS V14.01,2013-03-23 06:20:00,
2013-03-23 01:25:00,69.6,68.7,29.71,East,100,9.0,12.0,97,0.00,,---,0.00,VWS V14.01,2013-03-23 06:25:00,
2013-03-23 01:30:00,69.6,68.7,29.70,SE,125,7.0,12.0,97,0.00,,---,0.00,VWS V14.01,2013-03-23 06:30:00,
2013-03-23 01:35:00,69.6,68.7,29.70,ESE,114,7.0,13.0,97,0.00,,---,0.00,VWS V14.01,2013-03-23 06:35:00,
2013-03-23 01:40:00,69.5,68.9,29.71,ESE,107,7.0,13.0,98,0.00,,---,0.00,VWS V14.01,2013-03-23 06:40:00,
2013-03-23 01:45:00,69.4,68.8,29.71,ESE,105,7.0,13.0,98,0.00,,---,0.00,VWS V14.01,2013-03-23 06:45:00,
2013-03-23 01:50:00,69.4,68.8,29.70,ESE,118,5.0,13.0,98,0.00,,---,0.00,VWS V14.01,2013-03-23 06:50:00,
2013-03-23 01:55:00,69.4,68.8,29.70,ESE,105,9.0,13.0,98,0.00,,---,0.00,VWS V14.01,2013-03-23 06:55:00,
2013-03-23 02:00:00,69.3,68.7,29.69,ESE,117,7.0,13.0,98,0.00,,---,0.00,VWS V14.01,2013-03-23 07:00:00,
2013-03-23 02:05:00,69.3,68.7,29.69,East,98,7.0,15.0,98,0.00,,---,0.00,VWS V14.01,2013-03-23 07:05:00,
2013-03-23 02:10:00,69.2,68.6,29.69,ESE,112,8.0,15.0,98,0.00,,---,0.00,VWS V14.01,2013-03-23 07:10:00,
2013-03-23 02:15:00,69.3,68.7,29.69,ESE,105,8.0,15.0,98,0.00,,---,0.00,VWS V14.01,2013-03-23 07:15:00,
2013-03-23 02:20:00,69.3,68.7,29.68,ESE,115,8.0,15.0,98,0.00,,---,0.00,VWS V14.01,2013-03-23 07:20:00,
2013-03-23 02:25:00,69.2,68.6,29.68,East,101,12.0,15.0,98,0.00,,---,0.00,VWS V14.01,2013-03-23 07:25:00,
2013-03-23 02:30:00,69.2,68.6,29.68,NE,38,5.0,15.0,98,0.00,,---,0.00,VWS V14.01,2013-03-23 07:30:00,
2013-03-23 02:35:00,69.2,68.6,29.68,ENE,69,5.0,15.0,98,0.00,,---,0.00,VWS V14.01,2013-03-23 07:35:00,
2013-03-23 02:40:00,69.1,68.5,29.68,East,101,7.0,15.0,98,0.00,,---,0.00,VWS V14.01,2013-03-23 07:40:00,
2013-03-23 02:45:00,69.1,68.5,29.68,ESE,102,8.0,15.0,98,0.00,,---,0.00,VWS V14.01,2013-03-23 07:45:00,
2013-03-23 02:50:00,69.1,68.5,29.67,East,87,9.0,15.0,98,0.00,,---,0.00,VWS V14.01,2013-03-23 07:50:00,
2013-03-23 02:55:00,69.1,68.5,29.67,East,86,6.0,15.0,98,0.00,,---,0.00,VWS V14.01,2013-03-23 07:55:00,
2013-03-23 03:00:00,69.0,68.4,29.66,East,82,6.0,15.0,98,0.00,,---,0.00,VWS V14.01,2013-03-23 08:00:00,
2013-03-23 03:05:00,69.1,68.5,29.66,East,89,8.0,12.0,98,0.00,,---,0.00,VWS V14.01,2013-03-23 08:05:00,
2013-03-23 03:10:00,69.1,68.5,29.66,East,88,7.0,13.0,98,0.00,,---,0.00,VWS V14.01,2013-03-23 08:10:00,
2013-03-23 03:15:00,69.1,68.5,29.66,East,101,11.0,13.0,98,0.00,,---,0.00,VWS V14.01,2013-03-23 08:15:00,
2013-03-23 03:20:00,69.1,68.5,29.66,ESE,105,5.0,14.0,98,0.00,,---,0.00,VWS V14.01,2013-03-23 08:20:00,
2013-03-23 03:25:00,69.0,68.4,29.66,ESE,109,6.0,14.0,98,0.00,,---,0.00,VWS V14.01,2013-03-23 08:25:00,
2013-03-23 03:30:00,69.0,68.4,29.65,ESE,111,7.0,14.0,98,0.00,,---,0.00,VWS V14.01,2013-03-23 08:30:00,
2013-03-23 03:35:00,69.0,68.4,29.65,SE,133,9.0,14.0,98,0.00,,---,0.00,VWS V14.01,2013-03-23 08:35:00,
2013-03-23 03:40:00,68.9,68.3,29.65,ESE,105,6.0,14.0,98,0.00,,---,0.00,VWS V14.01,2013-03-23 08:40:00,
2013-03-23 03:45:00,68.9,68.3,29.65,ENE,62,5.0,14.0,98,0.00,,---,0.00,VWS V14.01,2013-03-23 08:45:00,
2013-03-23 03:50:00,68.8,68.2,29.64,East,79,11.0,14.0,98,0.00,,---,0.00,VWS V14.01,2013-03-23 08:50:00,
2013-03-23 03:55:00,68.9,68.3,29.64,ESE,105,5.0,14.0,98,0.00,,---,0.00,VWS V14.01,2013-03-23 08:55:00,
2013-03-23 04:00:00,69.0,68.4,29.64,East,79,7.0,14.0,98,0.00,,---,0.00,VWS V14.01,2013-03-23 09:00:00,
2013-03-23 04:05:00,69.0,68.4,29.65,ESE,118,7.0,9.0,98,0.00,,---,0.00,VWS V14.01,2013-03-23 09:05:00,
2013-03-23 04:10:00,69.0,68.4,29.65,ESE,110,10.0,10.0,98,0.00,,---,0.00,VWS V14.01,2013-03-23 09:10:00,
2013-03-23 04:15:00,69.0,68.4,29.65,East,93,5.0,10.0,98,0.00,,---,0.00,VWS V14.01,2013-03-23 09:15:00,
2013-03-23 04:20:00,69.0,68.4,29.66,ESE,103,7.0,10.0,98,0.00,,---,0.00,VWS V14.01,2013-03-23 09:20:00,
2013-03-23 04:25:00,69.1,68.5,29.66,ESE,105,4.0,10.0,98,0.00,,---,0.00,VWS V14.01,2013-03-23 09:25:00,
2013-03-23 04:30:00,69.0,68.4,29.66,SE,129,5.0,10.0,98,0.00,,---,0.00,VWS V14.01,2013-03-23 09:30:00,
2013-03-23 04:35:00,69.0,68.4,29.66,ESE,105,4.0,10.0,98,0.00,,---,0.00,VWS V14.01,2013-03-23 09:35:00,
2013-03-23 04:40:00,69.0,68.4,29.66,ESE,115,5.0,10.0,98,0.00,,---,0.00,VWS V14.01,2013-03-23 09:40:00,
2013-03-23 04:45:00,69.0,68.4,29.66,ESE,123,3.0,10.0,98,0.00,,---,0.00,VWS V14.01,2013-03-23 09:45:00,
2013-03-23 04:50:00,69.0,68.4,29.66,ESE,104,3.0,10.0,98,0.00,,---,0.00,VWS V14.01,2013-03-23 09:50:00,
2013-03-23 04:55:00,69.0,68.4,29.66,ESE,117,6.0,10.0,98,0.00,,---,0.00,VWS V14.01,2013-03-23 09:55:00,
2013-03-23 05:00:00,69.0,68.4,29.66,ESE,107,5.0,10.0,98,0.00,,---,0.00,VWS V14.01,2013-03-23 10:00:00,
2013-03-23 05:05:00,69.1,68.5,29.66,ESE,105,4.0,6.0,98,0.00,,---,0.00,VWS V14.01,2013-03-23 10:05:00,
2013-03-23 05:10:00,69.1,68.5,29.66,ESE,112,5.0,7.0,98,0.00,,---,0.00,VWS V14.01,2013-03-23 10:10:00,
2013-03-23 05:15:00,69.0,68.4,29.66,ESE,107,4.0,7.0,98,0.00,,---,0.00,VWS V14.01,2013-03-23 10:15:00,
2013-03-23 05:20:00,69.0,68.4,29.66,East,84,4.0,8.0,98,0.00,,---,0.00,VWS V14.01,2013-03-23 10:20:00,
2013-03-23 05:25:00,69.0,68.4,29.66,ESE,109,4.0,8.0,98,0.00,,---,0.00,VWS V14.01,2013-03-23 10:25:00,
2013-03-23 05:30:00,69.1,68.5,29.66,East,101,3.0,9.0,98,0.00,,---,0.00,VWS V14.01,2013-03-23 10:30:00,
2013-03-23 05:35:00,69.2,68.6,29.66,ESE,103,4.0,9.0,98,0.00,,---,0.00,VWS V14.01,2013-03-23 10:35:00,
2013-03-23 05:40:00,69.2,68.6,29.66,ESE,103,4.0,9.0,98,0.00,,---,0.00,VWS V14.01,2013-03-23 10:40:00,
2013-03-23 05:44:00,69.2,68.6,29.66,ESE,106,3.0,9.0,98,0.00,,---,0.00,VWS V14.01,2013-03-23 10:44:00,
2013-03-23 05:49:00,69.2,68.6,29.66,ESE,113,6.0,9.0,98,0.00,,---,0.00,VWS V14.01,2013-03-23 10:49:00,
2013-03-23 05:55:00,69.3,68.7,29.66,East,94,4.0,9.0,98,0.00,,---,0.00,VWS V14.01,2013-03-23 10:55:00,
2013-03-23 06:00:00,69.4,68.8,29.66,East,94,4.0,9.0,98,0.00,,---,0.00,VWS V14.01,2013-03-23 11:00:00,
2013-03-23 06:05:00,69.3,68.7,29.66,ESE,118,3.0,4.0,98,0.00,,---,0.00,VWS V14.01,2013-03-23 11:05:00,
2013-03-23 06:10:00,69.2,68.6,29.67,ESE,122,2.0,6.0,98,0.00,,---,0.00,VWS V14.01,2013-03-23 11:10:00,
2013-03-23 06:15:00,69.3,68.7,29.67,ESE,117,4.0,7.0,98,0.00,,---,0.00,VWS V14.01,2013-03-23 11:15:00,
2013-03-23 06:20:00,69.3,68.7,29.67,ESE,110,5.0,7.0,98,0.00,,---,0.00,VWS V14.01,2013-03-23 11:20:00,
2013-03-23 06:25:00,69.3,68.7,29.67,East,100,4.0,7.0,98,0.00,,---,0.00,VWS V14.01,2013-03-23 11:25:00,
2013-03-23 06:30:00,69.2,68.6,29.67,East,87,4.0,7.0,98,0.00,,---,0.00,VWS V14.01,2013-03-23 11:30:00,
2013-03-23 06:35:00,69.2,68.6,29.67,ENE,72,5.0,7.0,98,0.00,,---,0.00,VWS V14.01,2013-03-23 11:35:00,
2013-03-23 06:40:00,69.1,68.5,29.68,ESE,122,2.0,7.0,98,0.00,,---,0.00,VWS V14.01,2013-03-23 11:40:00,
2013-03-23 06:45:00,69.0,68.4,29.68,East,94,2.0,7.0,98,0.00,,---,0.00,VWS V14.01,2013-03-23 11:45:00,
2013-03-23 06:50:00,69.1,68.5,29.68,ESE,104,2.0,7.0,98,0.00,,---,0.00,VWS V14.01,2013-03-23 11:50:00,
2013-03-23 06:55:00,69.0,68.4,29.68,ENE,78,3.0,7.0,98,0.00,,---,0.00,VWS V14.01,2013-03-23 11:55:00,
2013-03-23 07:00:00,69.0,68.4,29.67,East,98,2.0,7.0,98,0.00,,---,0.00,VWS V14.01,2013-03-23 12:00:00,
2013-03-23 07:05:00,68.9,68.3,29.68,ENE,72,2.0,6.0,98,0.00,,---,0.00,VWS V14.01,2013-03-23 12:05:00,
2013-03-23 07:10:00,68.9,68.3,29.68,East,85,4.0,7.0,98,0.00,,---,0.00,VWS V14.01,2013-03-23 12:10:00,
2013-03-23 07:15:00,68.8,68.2,29.68,East,95,5.0,7.0,98,0.00,,---,0.00,VWS V14.01,2013-03-23 12:15:00,
2013-03-23 07:20:00,68.8,68.2,29.68,ENE,77,5.0,7.0,98,0.00,,---,0.00,VWS V14.01,2013-03-23 12:20:00,
2013-03-23 07:25:00,68.7,68.1,29.68,East,89,4.0,7.0,98,0.00,,---,0.00,VWS V14.01,2013-03-23 12:25:00,
2013-03-23 07:30:00,68.7,68.1,29.68,ENE,68,4.0,8.0,98,0.00,,---,0.00,VWS V14.01,2013-03-23 12:30:00,
2013-03-23 07:35:00,68.6,68.0,29.68,East,79,2.0,8.0,98,0.00,,---,0.00,VWS V14.01,2013-03-23 12:35:00,
2013-03-23 07:40:00,68.6,68.0,29.68,ENE,66,2.0,8.0,98,0.00,,---,0.00,VWS V14.01,2013-03-23 12:40:00,
2013-03-23 07:45:00,68.6,68.0,29.68,East,87,3.0,8.0,98,0.00,,---,0.00,VWS V14.01,2013-03-23 12:45:00,
2013-03-23 07:50:00,68.5,67.9,29.68,ENE,65,3.0,8.0,98,0.00,,---,0.00,VWS V14.01,2013-03-23 12:50:00,
2013-03-23 07:55:00,68.6,68.0,29.68,ENE,68,4.0,8.0,98,0.00,,---,0.00,VWS V14.01,2013-03-23 12:55:00,
2013-03-23 08:00:00,68.6,68.0,29.68,ENE,77,4.0,8.0,98,0.00,,---,0.00,VWS V14.01,2013-03-23 13:00:00,
2013-03-23 08:05:00,68.6,68.0,29.68,East,101,3.0,6.0,98,0.00,,---,0.00,VWS V14.01,2013-03-23 13:05:00,
2013-03-23 08:10:00,68.6,68.0,29.68,ENE,72,4.0,7.0,98,0.00,,---,0.00,VWS V14.01,2013-03-23 13:10:00,
2013-03-23 08:15:00,68.6,68.0,29.68,ENE,66,5.0,7.0,98,0.00,,---,0.00,VWS V14.01,2013-03-23 13:15:00,
2013-03-23 08:20:00,68.6,68.0,29.68,East,96,1.0,7.0,98,0.00,,---,0.00,VWS V14.01,2013-03-23 13:20:00,
2013-03-23 08:25:00,68.7,68.1,29.68,East,79,2.0,7.0,98,0.00,,---,0.00,VWS V14.01,2013-03-23 13:25:00,
2013-03-23 08:30:00,68.7,68.1,29.68,East,86,4.0,8.0,98,0.00,,---,0.00,VWS V14.01,2013-03-23 13:30:00,
2013-03-23 08:35:00,68.8,68.2,29.68,ENE,73,5.0,8.0,98,0.00,,---,0.00,VWS V14.01,2013-03-23 13:35:00,
2013-03-23 08:40:00,68.9,68.3,29.68,East,90,5.0,8.0,98,0.00,,---,0.00,VWS V14.01,2013-03-23 13:40:00,
2013-03-23 08:45:00,69.0,68.4,29.68,ENE,69,4.0,8.0,98,0.00,,---,0.00,VWS V14.01,2013-03-23 13:45:00,
2013-03-23 08:50:00,69.1,68.5,29.68,ESE,120,7.0,8.0,98,0.00,,---,0.00,VWS V14.01,2013-03-23 13:50:00,
2013-03-23 08:55:00,69.2,68.6,29.68,ENE,58,8.0,8.0,98,0.00,,---,0.00,VWS V14.01,2013-03-23 13:55:00,
2013-03-23 09:00:00,69.3,68.7,29.68,NE,55,7.0,10.0,98,0.00,,---,0.00,VWS V14.01,2013-03-23 14:00:00,
2013-03-23 09:05:00,69.3,68.7,29.68,East,79,7.0,8.0,98,0.00,,---,0.00,VWS V14.01,2013-03-23 14:05:00,
2013-03-23 09:10:00,69.4,68.8,29.68,East,93,3.0,8.0,98,0.00,,---,0.00,VWS V14.01,2013-03-23 14:10:00,
2013-03-23 09:15:00,69.5,68.9,29.68,ENE,65,6.0,8.0,98,0.00,,---,0.00,VWS V14.01,2013-03-23 14:15:00,
2013-03-23 09:20:00,69.6,69.0,29.68,East,79,3.0,8.0,98,0.00,,---,0.00,VWS V14.01,2013-03-23 14:20:00,
2013-03-23 09:25:00,69.7,69.1,29.68,East,101,6.0,8.0,98,0.00,,---,0.00,VWS V14.01,2013-03-23 14:25:00,
2013-03-23 09:30:00,69.9,69.3,29.68,ENE,72,4.0,8.0,98,0.00,,---,0.00,VWS V14.01,2013-03-23 14:30:00,
2013-03-23 09:35:00,70.0,69.4,29.68,East,89,3.0,9.0,98,0.00,,---,0.00,VWS V14.01,2013-03-23 14:35:00,
2013-03-23 09:40:00,70.3,69.7,29.68,ESE,110,4.0,9.0,98,0.00,,---,0.00,VWS V14.01,2013-03-23 14:40:00,
2013-03-23 09:45:00,70.6,70.0,29.67,ENE,75,4.0,9.0,98,0.00,,---,0.00,VWS V14.01,2013-03-23 14:45:00,
2013-03-23 09:50:00,71.0,70.4,29.67,East,98,6.0,9.0,98,0.00,,---,0.00,VWS V14.01,2013-03-23 14:50:00,
2013-03-23 09:55:00,71.2,70.6,29.67,ENE,58,3.0,9.0,98,0.00,,---,0.00,VWS V14.01,2013-03-23 14:55:00,
2013-03-23 10:00:00,71.5,70.6,29.67,ENE,67,5.0,9.0,97,0.00,,---,0.00,VWS V14.01,2013-03-23 15:00:00,
2013-03-23 10:05:00,71.8,70.9,29.67,ENE,68,6.0,7.0,97,0.00,,---,0.00,VWS V14.01,2013-03-23 15:05:00,
2013-03-23 10:10:00,72.2,71.3,29.67,East,101,5.0,8.0,97,0.00,,---,0.00,VWS V14.01,2013-03-23 15:10:00,
2013-03-23 10:15:00,72.4,71.2,29.67,East,88,7.0,8.0,96,0.00,,---,0.00,VWS V14.01,2013-03-23 15:15:00,
2013-03-23 10:20:00,72.3,71.1,29.68,East,94,6.0,8.0,96,0.00,,---,0.00,VWS V14.01,2013-03-23 15:20:00,
2013-03-23 10:25:00,72.5,71.0,29.68,East,91,7.0,8.0,95,0.00,,---,0.00,VWS V14.01,2013-03-23 15:25:00,
2013-03-23 10:30:00,72.7,71.2,29.68,SE,127,4.0,8.0,95,0.00,,---,0.00,VWS V14.01,2013-03-23 15:30:00,
2013-03-23 10:35:00,73.2,71.7,29.68,ESE,105,7.0,8.0,95,0.00,,---,0.00,VWS V14.01,2013-03-23 15:35:00,
2013-03-23 10:40:00,73.1,71.3,29.68,ESE,106,7.0,10.0,94,0.00,,---,0.00,VWS V14.01,2013-03-23 15:40:00,
2013-03-23 10:45:00,72.7,70.6,29.68,East,84,6.0,10.0,93,0.00,,---,0.00,VWS V14.01,2013-03-23 15:45:00,
2013-03-23 10:50:00,72.5,70.7,29.68,NE,53,2.0,10.0,94,0.00,,---,0.00,VWS V14.01,2013-03-23 15:50:00,
2013-03-23 10:55:00,72.2,70.4,29.68,ENE,62,6.0,10.0,94,0.00,,---,0.00,VWS V14.01,2013-03-23 15:55:00,
2013-03-23 11:00:00,70.4,67.3,29.69,NNW,331,4.0,10.0,90,0.00,,---,0.00,VWS V14.01,2013-03-23 16:00:00,
2013-03-23 11:05:00,68.8,66.4,29.69,NNW,332,5.0,7.0,92,0.00,,---,0.00,VWS V14.01,2013-03-23 16:05:00,
2013-03-23 11:10:00,68.2,66.1,29.69,NNE,32,5.0,8.0,93,0.00,,---,0.00,VWS V14.01,2013-03-23 16:10:00,
2013-03-23 11:15:00,67.4,65.3,29.69,NNW,335,3.0,10.0,93,0.00,,---,0.00,VWS V14.01,2013-03-23 16:15:00,
2013-03-23 11:20:00,67.1,65.3,29.69,NE,42,6.0,10.0,94,0.00,,---,0.00,VWS V14.01,2013-03-23 16:20:00,
2013-03-23 11:25:00,67.0,65.2,29.69,NNW,337,4.0,10.0,94,0.00,,---,0.00,VWS V14.01,2013-03-23 16:25:00,
2013-03-23 11:30:00,66.9,65.4,29.69,NE,44,6.0,10.0,95,0.00,,---,0.00,VWS V14.01,2013-03-23 16:30:00,
2013-03-23 11:35:00,66.8,65.0,29.69,NNW,341,7.0,10.0,94,0.00,,---,0.00,VWS V14.01,2013-03-23 16:35:00,
2013-03-23 11:40:00,66.9,65.4,29.70,NNW,327,3.0,10.0,95,0.00,,---,0.00,VWS V14.01,2013-03-23 16:40:00,
2013-03-23 11:45:00,67.2,65.7,29.69,NW,312,5.0,10.0,95,0.00,,---,0.00,VWS V14.01,2013-03-23 16:45:00,
2013-03-23 11:50:00,67.4,65.9,29.69,NNW,328,4.0,10.0,95,0.00,,---,0.00,VWS V14.01,2013-03-23 16:50:00,
2013-03-23 11:55:00,67.7,66.2,29.69,NE,44,7.0,10.0,95,0.00,,---,0.00,VWS V14.01,2013-03-23 16:55:00,
2013-03-23 12:00:00,68.1,66.6,29.69,NNW,342,0.0,10.0,95,0.00,,---,0.00,VWS V14.01,2013-03-23 17:00:00,
2013-03-23 12:05:00,68.6,66.8,29.69,North,359,6.0,8.0,94,0.00,,---,0.00,VWS V14.01,2013-03-23 17:05:00,
2013-03-23 12:10:00,68.9,66.8,29.69,NNE,16,4.0,8.0,93,0.00,,---,0.00,VWS V14.01,2013-03-23 17:10:00,
2013-03-23 12:15:00,69.1,67.0,29.69,North,359,5.0,9.0,93,0.00,,---,0.00,VWS V14.01,2013-03-23 17:15:00,
2013-03-23 12:20:00,69.3,66.9,29.69,North,354,7.0,9.0,92,0.00,,---,0.00,VWS V14.01,2013-03-23 17:20:00,
2013-03-23 12:25:00,69.4,67.0,29.69,North,354,2.0,9.0,92,0.00,,---,0.00,VWS V14.01,2013-03-23 17:25:00,
2013-03-23 12:30:00,69.6,67.5,29.69,North,349,7.0,9.0,93,0.00,,---,0.00,VWS V14.01,2013-03-23 17:30:00,
2013-03-23 12:35:00,69.5,67.1,29.69,North,1,4.0,9.0,92,0.00,,---,0.00,VWS V14.01,2013-03-23 17:35:00,
2013-03-23 12:40:00,69.4,67.0,29.70,NNW,337,3.0,10.0,92,0.00,,---,0.00,VWS V14.01,2013-03-23 17:40:00,
2013-03-23 12:45:00,69.0,66.3,29.69,NW,325,5.0,11.0,91,0.00,,---,0.00,VWS V14.01,2013-03-23 17:45:00,
2013-03-23 12:50:00,68.8,66.4,29.69,NNW,333,4.0,11.0,92,0.00,,---,0.00,VWS V14.01,2013-03-23 17:50:00,
2013-03-23 12:55:00,68.8,66.4,29.69,NNW,333,7.0,11.0,92,0.00,,---,0.00,VWS V14.01,2013-03-23 17:55:00,
2013-03-23 13:00:00,68.5,66.1,29.69,NW,321,7.0,13.0,92,0.00,,---,0.00,VWS V14.01,2013-03-23 18:00:00,
2013-03-23 13:05:00,68.3,65.6,29.69,NW,321,4.0,12.0,91,0.00,,---,0.00,VWS V14.01,2013-03-23 18:05:00,
2013-03-23 13:10:00,67.9,65.2,29.69,NW,311,6.0,15.0,91,0.00,,---,0.00,VWS V14.01,2013-03-23 18:10:00,
2013-03-23 13:15:00,67.5,64.8,29.69,WNW,301,11.0,15.0,91,0.00,,---,0.00,VWS V14.01,2013-03-23 18:15:00,
2013-03-23 13:20:00,67.4,64.7,29.69,NW,323,6.0,15.0,91,0.00,,---,0.00,VWS V14.01,2013-03-23 18:20:00,
2013-03-23 13:25:00,67.1,64.7,29.69,NW,306,9.0,15.0,92,0.00,,---,0.00,VWS V14.01,2013-03-23 18:25:00,
2013-03-23 13:30:00,66.8,64.1,29.69,NW,305,11.0,15.0,91,0.00,,---,0.00,VWS V14.01,2013-03-23 18:30:00,
2013-03-23 13:35:00,66.6,64.2,29.69,NW,325,10.0,15.0,92,0.00,,---,0.00,VWS V14.01,2013-03-23 18:35:00,
2013-03-23 13:40:00,66.3,64.2,29.69,NW,311,9.0,16.0,93,0.00,,---,0.00,VWS V14.01,2013-03-23 18:40:00,
2013-03-23 13:45:00,66.2,63.8,29.69,NW,308,8.0,16.0,92,0.00,,---,0.00,VWS V14.01,2013-03-23 18:45:00,
2013-03-23 13:50:00,66.0,63.9,29.68,NW,304,5.0,16.0,93,0.00,,---,0.00,VWS V14.01,2013-03-23 18:50:00,
2013-03-23 13:55:00,66.0,63.9,29.68,NNW,328,6.0,16.0,93,0.00,,---,0.00,VWS V14.01,2013-03-23 18:55:00,
2013-03-23 14:00:00,66.1,64.0,29.67,NNW,332,7.0,16.0,93,0.00,,---,0.00,VWS V14.01,2013-03-23 19:00:00,
2013-03-23 14:05:00,66.1,64.0,29.67,NNE,23,4.0,12.0,93,0.00,,---,0.00,VWS V14.01,2013-03-23 19:05:00,
2013-03-23 14:10:00,66.1,64.0,29.67,NNE,27,7.0,12.0,93,0.00,,---,0.00,VWS V14.01,2013-03-23 19:10:00,
2013-03-23 14:15:00,66.2,64.1,29.66,NNW,334,9.0,12.0,93,0.00,,---,0.00,VWS V14.01,2013-03-23 19:15:00,
2013-03-23 14:20:00,66.3,64.2,29.66,NNE,21,5.0,12.0,93,0.00,,---,0.00,VWS V14.01,2013-03-23 19:20:00,
2013-03-23 14:25:00,66.3,63.9,29.66,NNW,342,5.0,12.0,92,0.00,,---,0.00,VWS V14.01,2013-03-23 19:25:00,
2013-03-23 14:30:00,66.6,64.5,29.66,NE,44,3.0,12.0,93,0.00,,---,0.00,VWS V14.01,2013-03-23 19:30:00,
2013-03-23 14:35:00,66.6,64.2,29.66,NNE,32,8.0,12.0,92,0.00,,---,0.00,VWS V14.01,2013-03-23 19:35:00,
2013-03-23 14:40:00,66.8,64.4,29.65,NNW,342,7.0,12.0,92,0.00,,---,0.00,VWS V14.01,2013-03-23 19:40:00,
2013-03-23 14:45:00,66.8,64.1,29.65,North,351,6.0,12.0,91,0.00,,---,0.00,VWS V14.01,2013-03-23 19:45:00,
2013-03-23 14:50:00,66.9,64.5,29.65,NNE,20,4.0,12.0,92,0.00,,---,0.00,VWS V14.01,2013-03-23 19:50:00,
2013-03-23 14:55:00,67.5,64.5,29.65,NNW,330,3.0,12.0,90,0.00,,---,0.00,VWS V14.01,2013-03-23 19:55:00,
2013-03-23 15:00:00,67.5,64.5,29.65,NE,53,4.0,12.0,90,0.00,,---,0.00,VWS V14.01,2013-03-23 20:00:00,
2013-03-23 15:05:00,67.7,64.3,29.64,NNE,22,6.0,10.0,89,0.00,,---,0.00,VWS V14.01,2013-03-23 20:05:00,
2013-03-23 15:10:00,67.6,64.2,29.64,North,5,8.0,11.0,89,0.00,,---,0.00,VWS V14.01,2013-03-23 20:10:00,
2013-03-23 15:15:00,67.8,64.8,29.64,NNE,33,4.0,11.0,90,0.00,,---,0.00,VWS V14.01,2013-03-23 20:15:00,
2013-03-23 15:20:00,68.0,64.6,29.63,NNW,336,7.0,12.0,89,0.00,,---,0.00,VWS V14.01,2013-03-23 20:20:00,
2013-03-23 15:25:00,68.1,64.7,29.63,NNW,345,4.0,12.0,89,0.00,,---,0.00,VWS V14.01,2013-03-23 20:25:00,
2013-03-23 15:30:00,68.6,64.9,29.63,NW,313,6.0,12.0,88,0.00,,---,0.00,VWS V14.01,2013-03-23 20:30:00,
2013-03-23 15:35:00,68.9,65.2,29.62,NNE,32,8.0,12.0,88,0.00,,---,0.00,VWS V14.01,2013-03-23 20:35:00,
2013-03-23 15:40:00,68.9,64.9,29.63,NE,49,2.0,12.0,87,0.00,,---,0.00,VWS V14.01,2013-03-23 20:40:00,
2013-03-23 15:45:00,69.4,65.4,29.63,NE,39,6.0,12.0,87,0.00,,---,0.00,VWS V14.01,2013-03-23 20:45:00,
2013-03-23 15:50:00,69.8,65.4,29.62,NNE,18,7.0,12.0,86,0.00,,---,0.00,VWS V14.01,2013-03-23 20:50:00,
2013-03-23 15:55:00,69.6,65.6,29.62,North,4,4.0,12.0,87,0.00,,---,0.00,VWS V14.01,2013-03-23 20:55:00,
2013-03-23 16:00:00,69.8,65.4,29.62,NNW,345,4.0,12.0,86,0.00,,---,0.00,VWS V14.01,2013-03-23 21:00:00,
2013-03-23 16:05:00,69.8,65.4,29.62,NNW,336,3.0,8.0,86,0.00,,---,0.00,VWS V14.01,2013-03-23 21:05:00,
2013-03-23 16:10:00,69.9,65.9,29.61,NNE,26,2.0,10.0,87,0.00,,---,0.00,VWS V14.01,2013-03-23 21:10:00,
2013-03-23 16:15:00,70.3,65.9,29.61,NNE,18,5.0,10.0,86,0.00,,---,0.00,VWS V14.01,2013-03-23 21:15:00,
2013-03-23 16:20:00,70.5,65.8,29.61,NNE,25,8.0,10.0,85,0.00,,---,0.00,VWS V14.01,2013-03-23 21:20:00,
2013-03-23 16:25:00,70.2,65.8,29.60,NNE,25,5.0,10.0,86,0.00,,---,0.00,VWS V14.01,2013-03-23 21:25:00,
2013-03-23 16:30:00,70.2,66.2,29.60,NE,36,3.0,10.0,87,0.00,,---,0.00,VWS V14.01,2013-03-23 21:30:00,
2013-03-23 16:35:00,70.4,66.0,29.60,NE,40,7.0,10.0,86,0.00,,---,0.00,VWS V14.01,2013-03-23 21:35:00,
2013-03-23 16:40:00,70.7,66.7,29.60,ENE,70,3.0,10.0,87,0.00,,---,0.00,VWS V14.01,2013-03-23 21:40:00,
2013-03-23 16:45:00,70.7,66.3,29.60,NNE,27,2.0,10.0,86,0.00,,---,0.00,VWS V14.01,2013-03-23 21:45:00,
2013-03-23 16:50:00,71.1,67.4,29.60,NNE,18,4.0,10.0,88,0.00,,---,0.00,VWS V14.01,2013-03-23 21:50:00,
2013-03-23 16:55:00,71.1,66.7,29.59,NE,53,7.0,10.0,86,0.00,,---,0.00,VWS V14.01,2013-03-23 21:55:00,
2013-03-23 17:00:00,71.2,67.1,29.60,NE,39,6.0,10.0,87,0.00,,---,0.00,VWS V14.01,2013-03-23 22:00:00,
2013-03-23 17:05:00,71.2,67.1,29.59,NNE,30,4.0,8.0,87,0.00,,---,0.00,VWS V14.01,2013-03-23 22:05:00,
2013-03-23 17:10:00,71.4,67.0,29.59,NNE,19,4.0,8.0,86,0.00,,---,0.00,VWS V14.01,2013-03-23 22:10:00,
2013-03-23 17:15:00,71.6,66.9,29.60,ENE,57,5.0,8.0,85,0.00,,---,0.00,VWS V14.01,2013-03-23 22:15:00,
2013-03-23 17:20:00,71.6,66.5,29.60,NNW,345,5.0,8.0,84,0.00,,---,0.00,VWS V14.01,2013-03-23 22:20:00,
2013-03-23 17:25:00,71.7,66.6,29.60,NNE,20,4.0,8.0,84,0.00,,---,0.00,VWS V14.01,2013-03-23 22:25:00,
2013-03-23 17:30:00,71.8,66.7,29.59,NNE,25,5.0,8.0,84,0.00,,---,0.00,VWS V14.01,2013-03-23 22:30:00,
2013-03-23 17:35:00,72.1,67.0,29.59,NNE,27,4.0,8.0,84,0.00,,---,0.00,VWS V14.01,2013-03-23 22:35:00,
2013-03-23 17:40:00,72.2,67.4,29.59,NE,53,4.0,8.0,85,0.00,,---,0.00,VWS V14.01,2013-03-23 22:40:00,
2013-03-23 17:45:00,72.4,67.3,29.59,ENE,57,4.0,8.0,84,0.00,,---,0.00,VWS V14.01,2013-03-23 22:45:00,
2013-03-23 17:50:00,72.4,67.3,29.59,NE,39,3.0,8.0,84,0.00,,---,0.00,VWS V14.01,2013-03-23 22:50:00,
2013-03-23 17:55:00,72.6,67.5,29.59,ENE,58,4.0,8.0,84,0.00,,---,0.00,VWS V14.01,2013-03-23 22:55:00,
2013-03-23 18:00:00,72.6,67.2,29.59,NE,56,4.0,8.0,83,0.00,,---,0.00,VWS V14.01,2013-03-23 23:00:00,
2013-03-23 18:05:00,72.6,67.5,29.60,NE,40,2.0,6.0,84,0.00,,---,0.00,VWS V14.01,2013-03-23 23:05:00,
2013-03-23 18:10:00,72.8,67.3,29.60,NNE,33,5.0,6.0,83,0.00,,---,0.00,VWS V14.01,2013-03-23 23:10:00,
2013-03-23 18:15:00,72.8,67.7,29.60,NE,45,1.0,6.0,84,0.00,,---,0.00,VWS V14.01,2013-03-23 23:15:00,
2013-03-23 18:20:00,72.8,67.3,29.60,NNE,32,3.0,6.0,83,0.00,,---,0.00,VWS V14.01,2013-03-23 23:20:00,
2013-03-23 18:25:00,72.8,67.3,29.60,NE,34,1.0,6.0,83,0.00,,---,0.00,VWS V14.01,2013-03-23 23:25:00,
2013-03-23 18:30:00,72.5,67.1,29.60,ENE,57,3.0,6.0,83,0.00,,---,0.00,VWS V14.01,2013-03-23 23:30:00,
2013-03-23 18:35:00,72.4,66.9,29.60,ENE,58,0.0,6.0,83,0.00,,---,0.00,VWS V14.01,2013-03-23 23:35:00,
2013-03-23 18:40:00,72.5,67.1,29.61,NNE,23,2.0,6.0,83,0.00,,---,0.00,VWS V14.01,2013-03-23 23:40:00,
2013-03-23 18:45:00,72.5,67.1,29.61,ENE,57,3.0,6.0,83,0.00,,---,0.00,VWS V14.01,2013-03-23 23:45:00,
2013-03-23 18:50:00,72.5,67.1,29.60,East,84,3.0,6.0,83,0.00,,---,0.00,VWS V14.01,2013-03-23 23:50:00,
2013-03-23 18:55:00,72.3,66.8,29.60,East,98,2.0,6.0,83,0.00,,---,0.00,VWS V14.01,2013-03-23 23:55:00,
2013-03-23 19:00:00,72.0,66.6,29.60,East,83,0.0,6.0,83,0.00,,---,0.00,VWS V14.01,2013-03-24 00:00:00,
2013-03-23 19:05:00,71.7,66.6,29.61,NE,53,2.0,2.0,84,0.00,,---,0.00,VWS V14.01,2013-03-24 00:05:00,
2013-03-23 19:10:00,71.5,66.4,29.61,NE,55,0.0,2.0,84,0.00,,---,0.00,VWS V14.01,2013-03-24 00:10:00,
2013-03-23 19:15:00,71.5,66.8,29.61,NE,56,0.0,2.0,85,0.00,,---,0.00,VWS V14.01,2013-03-24 00:15:00,
2013-03-23 19:20:00,71.4,66.7,29.61,ENE,60,0.0,2.0,85,0.00,,---,0.00,VWS V14.01,2013-03-24 00:20:00,
2013-03-23 19:25:00,71.2,66.5,29.61,East,98,1.0,2.0,85,0.00,,---,0.00,VWS V14.01,2013-03-24 00:25:00,
2013-03-23 19:30:00,71.0,66.6,29.62,ESE,111,2.0,2.0,86,0.00,,---,0.00,VWS V14.01,2013-03-24 00:30:00,
2013-03-23 19:35:00,70.7,66.3,29.62,SE,145,2.0,2.0,86,0.00,,---,0.00,VWS V14.01,2013-03-24 00:35:00,
2013-03-23 19:40:00,70.4,66.3,29.62,East,98,1.0,2.0,87,0.00,,---,0.00,VWS V14.01,2013-03-24 00:40:00,
2013-03-23 19:45:00,70.2,66.2,29.62,SE,128,1.0,2.0,87,0.00,,---,0.00,VWS V14.01,2013-03-24 00:45:00,
2013-03-23 19:50:00,70.0,66.3,29.62,SE,140,1.0,2.0,88,0.00,,---,0.00,VWS V14.01,2013-03-24 00:50:00,
2013-03-23 19:55:00,69.9,66.2,29.62,SE,139,0.0,2.0,88,0.00,,---,0.00,VWS V14.01,2013-03-24 00:55:00,
2013-03-23 20:00:00,69.7,66.0,29.62,SE,140,0.0,2.0,88,0.00,,---,0.00,VWS V14.01,2013-03-24 01:00:00,
2013-03-23 20:05:00,69.3,65.6,29.63,SE,139,0.0,0.0,88,0.00,,---,0.00,VWS V14.01,2013-03-24 01:05:00,
2013-03-23 20:10:00,69.1,65.7,29.63,SE,139,0.0,0.0,89,0.00,,---,0.00,VWS V14.01,2013-03-24 01:10:00,
2013-03-23 20:15:00,69.2,66.2,29.64,SE,140,1.0,1.0,90,0.00,,---,0.00,VWS V14.01,2013-03-24 01:15:00,
2013-03-23 20:20:00,68.9,65.8,29.64,SE,139,0.0,1.0,90,0.00,,---,0.00,VWS V14.01,2013-03-24 01:20:00,
2013-03-23 20:25:00,68.6,65.6,29.65,SE,139,0.0,1.0,90,0.00,,---,0.00,VWS V14.01,2013-03-24 01:25:00,
2013-03-23 20:31:00,68.4,65.4,29.65,SE,139,0.0,1.0,90,0.00,,---,0.00,VWS V14.01,2013-03-24 01:31:00,
2013-03-23 20:36:00,68.2,65.5,29.65,SE,140,0.0,1.0,91,0.00,,---,0.00,VWS V14.01,2013-03-24 01:36:00,
2013-03-23 20:41:00,68.0,65.3,29.65,SE,139,0.0,1.0,91,0.00,,---,0.00,VWS V14.01,2013-03-24 01:41:00,
2013-03-23 20:46:00,67.8,65.1,29.65,SE,139,0.0,1.0,91,0.00,,---,0.00,VWS V14.01,2013-03-24 01:46:00,
2013-03-23 20:51:00,67.6,64.9,29.65,SE,139,0.0,1.0,91,0.00,,---,0.00,VWS V14.01,2013-03-24 01:51:00,
2013-03-23 20:56:00,67.6,65.2,29.65,SE,140,0.0,1.0,92,0.00,,---,0.00,VWS V14.01,2013-03-24 01:56:00,
2013-03-23 21:01:00,67.8,65.7,29.66,SE,139,1.0,1.0,93,0.00,,---,0.00,VWS V14.01,2013-03-24 02:01:00,
2013-03-23 21:07:00,68.0,65.6,29.66,East,99,1.0,2.0,92,0.00,,---,0.00,VWS V14.01,2013-03-24 02:07:00,
2013-03-23 21:12:00,68.1,65.7,29.66,East,86,1.0,2.0,92,0.00,,---,0.00,VWS V14.01,2013-03-24 02:12:00,
2013-03-23 21:17:00,68.1,65.7,29.66,East,90,0.0,2.0,92,0.00,,---,0.00,VWS V14.01,2013-03-24 02:17:00,
2013-03-23 21:22:00,68.1,65.7,29.66,East,90,1.0,2.0,92,0.00,,---,0.00,VWS V14.01,2013-03-24 02:22:00,
2013-03-23 21:27:00,68.4,66.3,29.66,SE,127,2.0,4.0,93,0.00,,---,0.00,VWS V14.01,2013-03-24 02:27:00,
2013-03-23 21:32:00,68.6,66.5,29.66,ESE,114,4.0,4.0,93,0.00,,---,0.00,VWS V14.01,2013-03-24 02:32:00,
2013-03-23 21:37:00,69.0,66.9,29.66,SE,124,1.0,5.0,93,0.00,,---,0.00,VWS V14.01,2013-03-24 02:37:00,
2013-03-23 21:42:00,68.9,66.8,29.66,ESE,105,2.0,6.0,93,0.00,,---,0.00,VWS V14.01,2013-03-24 02:42:00,
2013-03-23 21:47:00,68.5,66.4,29.66,SE,129,4.0,6.0,93,0.00,,---,0.00,VWS V14.01,2013-03-24 02:47:00,
2013-03-23 21:52:00,68.2,66.1,29.66,ESE,108,3.0,6.0,93,0.00,,---,0.00,VWS V14.01,2013-03-24 02:52:00,
2013-03-23 21:57:00,68.1,66.0,29.66,ESE,105,3.0,6.0,93,0.00,,---,0.00,VWS V14.01,2013-03-24 02:57:00,
2013-03-23 22:02:00,68.0,65.9,29.65,SE,136,3.0,6.0,93,0.00,,---,0.00,VWS V14.01,2013-03-24 03:02:00,
2013-03-23 22:07:00,67.9,66.1,29.66,SE,124,3.0,6.0,94,0.00,,---,0.00,VWS V14.01,2013-03-24 03:07:00,
2013-03-23 22:12:00,67.9,66.1,29.66,ESE,108,5.0,6.0,94,0.00,,---,0.00,VWS V14.01,2013-03-24 03:12:00,
2013-03-23 22:17:00,68.0,66.2,29.66,ESE,113,3.0,6.0,94,0.00,,---,0.00,VWS V14.01,2013-03-24 03:17:00,
2013-03-23 22:22:00,68.0,66.2,29.66,ENE,77,4.0,6.0,94,0.00,,---,0.00,VWS V14.01,2013-03-24 03:22:00,
2013-03-23 22:27:00,67.8,66.0,29.66,ENE,74,2.0,6.0,94,0.00,,---,0.00,VWS V14.01,2013-03-24 03:27:00,
2013-03-23 22:32:00,67.7,65.9,29.66,East,84,2.0,6.0,94,0.00,,---,0.00,VWS V14.01,2013-03-24 03:32:00,
2013-03-23 22:37:00,67.7,66.2,29.66,East,95,4.0,6.0,95,0.00,,---,0.00,VWS V14.01,2013-03-24 03:37:00,
2013-03-23 22:42:00,67.7,66.2,29.66,East,101,3.0,6.0,95,0.00,,---,0.00,VWS V14.01,2013-03-24 03:42:00,
2013-03-23 22:47:00,67.8,66.3,29.65,ESE,112,4.0,6.0,95,0.00,,---,0.00,VWS V14.01,2013-03-24 03:47:00,
2013-03-23 22:52:00,67.8,66.3,29.65,East,91,4.0,6.0,95,0.00,,---,0.00,VWS V14.01,2013-03-24 03:52:00,
2013-03-23 22:57:00,67.8,66.3,29.65,East,101,4.0,6.0,95,0.00,,---,0.00,VWS V14.01,2013-03-24 03:57:00,
2013-03-23 23:00:00,67.8,66.3,29.65,East,101,4.0,6.0,95,0.00,,---,0.00,VWS V14.01,2013-03-24 04:00:00,
2013-03-23 23:05:00,67.8,66.3,29.65,ESE,123,3.0,5.0,95,0.00,,---,0.00,VWS V14.01,2013-03-24 04:05:00,
2013-03-23 23:10:00,67.8,66.3,29.65,East,86,2.0,5.0,95,0.00,,---,0.00,VWS V14.01,2013-03-24 04:10:00,
2013-03-23 23:15:00,67.8,66.3,29.65,East,82,2.0,5.0,95,0.00,,---,0.00,VWS V14.01,2013-03-24 04:15:00,
2013-03-23 23:20:00,67.7,66.2,29.65,ENE,70,1.0,5.0,95,0.00,,---,0.00,VWS V14.01,2013-03-24 04:20:00,
2013-03-23 23:25:00,67.5,66.3,29.65,NE,51,1.0,5.0,96,0.00,,---,0.00,VWS V14.01,2013-03-24 04:25:00,
2013-03-23 23:30:00,67.3,65.8,29.65,NE,53,2.0,5.0,95,0.00,,---,0.00,VWS V14.01,2013-03-24 04:30:00,
2013-03-23 23:35:00,67.2,66.0,29.65,NE,53,3.0,5.0,96,0.00,,---,0.00,VWS V14.01,2013-03-24 04:35:00,
2013-03-23 23:40:00,67.0,65.8,29.65,ENE,64,2.0,5.0,96,0.00,,---,0.00,VWS V14.01,2013-03-24 04:40:00,
2013-03-23 23:45:00,66.9,65.7,29.65,ENE,61,2.0,5.0,96,0.00,,---,0.00,VWS V14.01,2013-03-24 04:45:00,
2013-03-23 23:50:00,66.8,65.6,29.65,NE,53,3.0,5.0,96,0.00,,---,0.00,VWS V14.01,2013-03-24 04:50:00,
2013-03-23 23:55:00,66.8,65.6,29.65,ENE,63,2.0,6.0,96,0.00,,---,0.00,VWS V14.01,2013-03-24 04:55:00,